Time,TemperatureF,DewpointF,PressureIn,WindDirection,WindDirectionDegrees,WindSpeedMPH,WindSpeedGustMPH,Humidity,HourlyPrecipIn,Conditions,Clouds,dailyrainin,SoftwareType,DateUTC
2013-12-19 00:12:00,38.0,24.0,-100.00,WSW,243,1.0,12.0,56,0.00,,,0.04,,2013-12-19 05:12:00,
2013-12-19 00:22:00,38.0,23.0,-100.00,SSE,162,3.0,9.0,55,0.00,,,0.04,,2013-12-19 05:22:00,
2013-12-19 00:42:00,38.0,23.0,-100.00,SW,220,4.0,9.0,55,0.00,,,0.04,,2013-12-19 05:42:00,
2013-12-19 00:52:00,38.0,23.0,-100.00,SSW,206,3.0,13.0,55,0.00,,,0.04,,2013-12-19 05:52:00,
2013-12-19 01:12:00,38.0,23.0,-100.00,West,273,2.0,11.0,55,0.00,,,0.04,,2013-12-19 06:12:00,
2013-12-19 01:22:00,38.0,23.0,-100.00,SSW,204,2.0,8.0,54,0.00,,,0.04,,2013-12-19 06:22:00,
2013-12-19 01:42:00,38.0,23.0,-100.00,SE,132,3.0,9.0,54,0.00,,,0.04,,2013-12-19 06:42:00,
2013-12-19 01:52:00,38.0,23.0,-100.00,SSW,204,1.0,7.0,55,0.00,,,0.04,,2013-12-19 06:52:00,
2013-12-19 02:12:00,38.0,24.0,-100.00,SSE,158,1.0,6.0,56,0.00,,,0.04,,2013-12-19 07:12:00,
2013-12-19 02:22:00,38.0,24.0,-100.00,SW,233,1.0,5.0,57,0.00,,,0.04,,2013-12-19 07:22:00,
2013-12-19 02:42:00,38.0,24.0,-100.00,WSW,253,1.0,4.0,57,0.00,,,0.04,,2013-12-19 07:42:00,
2013-12-19 02:52:00,38.0,24.0,-100.00,WSW,257,2.0,8.0,57,0.00,,,0.04,,2013-12-19 07:52:00,
2013-12-19 03:11:00,38.0,25.0,-100.00,SSW,203,2.0,6.0,58,0.00,,,0.04,,2013-12-19 08:11:00,
2013-12-19 03:22:00,38.0,25.0,-100.00,SSE,167,2.0,6.0,58,0.00,,,0.04,,2013-12-19 08:22:00,
2013-12-19 03:42:00,38.0,25.0,-100.00,South,185,0.0,6.0,58,0.00,,,0.04,,2013-12-19 08:42:00,
2013-12-19 03:52:00,39.0,25.0,-100.00,SSW,206,1.0,5.0,58,0.00,,,0.04,,2013-12-19 08:52:00,
2013-12-19 04:11:00,39.0,26.0,-100.00,SW,222,0.0,8.0,59,0.00,,,0.04,,2013-12-19 09:11:00,
2013-12-19 04:22:00,39.0,26.0,-100.00,WSW,249,1.0,7.0,60,0.00,,,0.04,,2013-12-19 09:22:00,
2013-12-19 04:43:00,39.0,26.0,-100.00,WSW,243,1.0,12.0,60,0.00,,,0.04,,2013-12-19 09:43:00,
2013-12-19 04:54:00,39.0,26.0,-100.00,SSW,212,1.0,8.0,60,0.00,,,0.04,,2013-12-19 09:54:00,
2013-12-19 05:12:00,39.0,26.0,-100.00,WSW,249,2.0,7.0,60,0.00,,,0.04,,2013-12-19 10:12:00,
2013-12-19 05:23:00,39.0,27.0,-100.00,SSW,195,0.0,9.0,61,0.00,,,0.04,,2013-12-19 10:23:00,
2013-12-19 05:43:00,39.0,27.0,-100.00,SE,142,3.0,7.0,62,0.00,,,0.04,,2013-12-19 10:43:00,
2013-12-19 05:53:00,39.0,27.0,-100.00,SSW,211,2.0,9.0,62,0.00,,,0.04,,2013-12-19 10:53:00,
2013-12-19 06:12:00,39.0,27.0,-100.00,SSW,200,1.0,8.0,62,0.00,,,0.04,,2013-12-19 11:12:00,
2013-12-19 06:22:00,39.0,28.0,-100.00,SSW,194,1.0,8.0,64,0.00,,,0.04,,2013-12-19 11:22:00,
2013-12-19 06:42:00,39.0,28.0,-100.00,South,178,0.0,7.0,64,0.00,,,0.04,,2013-12-19 11:42:00,
2013-12-19 06:53:00,39.0,28.0,-100.00,West,262,1.0,7.0,65,0.00,,,0.04,,2013-12-19 11:53:00,
2013-12-19 07:12:00,38.0,27.0,-100.00,SW,231,3.0,7.0,65,0.00,,,0.04,,2013-12-19 12:12:00,
2013-12-19 07:22:00,38.0,28.0,-100.00,SW,214,0.0,7.0,66,0.00,,,0.04,,2013-12-19 12:22:00,
2013-12-19 07:42:00,38.0,28.0,-100.00,SSW,193,2.0,7.0,66,0.00,,,0.04,,2013-12-19 12:42:00,
2013-12-19 07:52:00,38.0,28.0,-100.00,SE,142,2.0,7.0,67,0.00,,,0.04,,2013-12-19 12:52:00,
2013-12-19 08:11:00,38.0,28.0,-100.00,SSW,211,3.0,14.0,67,0.00,,,0.04,,2013-12-19 13:11:00,
2013-12-19 08:22:00,38.0,28.0,-100.00,SSW,199,2.0,8.0,67,0.00,,,0.04,,2013-12-19 13:22:00,
2013-12-19 08:42:00,39.0,29.0,-100.00,SE,139,2.0,7.0,68,0.00,,,0.04,,2013-12-19 13:42:00,
2013-12-19 08:52:00,39.0,29.0,-100.00,SSE,147,1.0,6.0,67,0.00,,,0.04,,2013-12-19 13:52:00,
2013-12-19 09:12:00,40.0,30.0,-100.00,SSE,168,5.0,8.0,67,0.00,,,0.04,,2013-12-19 14:12:00,
2013-12-19 09:22:00,40.0,30.0,-100.00,SE,141,2.0,9.0,67,0.00,,,0.04,,2013-12-19 14:22:00,
2013-12-19 09:42:00,41.0,31.0,-100.00,SE,134,2.0,10.0,67,0.00,,,0.04,,2013-12-19 14:42:00,
2013-12-19 09:52:00,42.0,31.0,-100.00,SW,226,3.0,9.0,66,0.00,,,0.04,,2013-12-19 14:52:00,
2013-12-19 10:12:00,43.0,32.0,-100.00,South,179,3.0,9.0,65,0.00,,,0.04,,2013-12-19 15:12:00,
2013-12-19 10:22:00,43.0,32.0,-100.00,South,179,3.0,9.0,65,0.00,,,0.04,,2013-12-19 15:22:00,
2013-12-19 10:43:00,45.0,33.0,-100.00,SSW,201,5.0,11.0,63,0.00,,,0.04,,2013-12-19 15:43:00,
2013-12-19 10:54:00,45.0,34.0,-100.00,SSW,199,2.0,8.0,65,0.00,,,0.04,,2013-12-19 15:54:00,
2013-12-19 11:13:00,46.0,35.0,-100.00,South,176,3.0,9.0,64,0.00,,,0.04,,2013-12-19 16:13:00,
2013-12-19 11:23:00,46.0,35.0,-100.00,SSW,201,3.0,9.0,64,0.00,,,0.04,,2013-12-19 16:23:00,
2013-12-19 11:42:00,47.0,36.0,-100.00,SSE,156,1.0,8.0,65,0.00,,,0.04,,2013-12-19 16:42:00,
2013-12-19 11:53:00,48.0,36.0,-100.00,SSW,200,2.0,6.0,64,0.00,,,0.04,,2013-12-19 16:53:00,
2013-12-19 12:12:00,48.0,36.0,-100.00,SSW,206,2.0,6.0,63,0.00,,,0.04,,2013-12-19 17:12:00,
2013-12-19 12:22:00,49.0,37.0,-100.00,SSW,207,3.0,8.0,63,0.00,,,0.04,,2013-12-19 17:22:00,
2013-12-19 12:42:00,50.0,38.0,-100.00,SSE,158,2.0,7.0,63,0.00,,,0.04,,2013-12-19 17:42:00,
2013-12-19 12:53:00,50.0,38.0,-100.00,South,191,2.0,7.0,63,0.00,,,0.04,,2013-12-19 17:53:00,
2013-12-19 13:12:00,50.0,38.0,-100.00,SSE,162,2.0,7.0,63,0.00,,,0.04,,2013-12-19 18:12:00,
2013-12-19 13:22:00,50.0,38.0,-100.00,SW,222,3.0,6.0,64,0.00,,,0.04,,2013-12-19 18:22:00,
2013-12-19 13:42:00,51.0,39.0,-100.00,South,171,1.0,8.0,63,0.00,,,0.02,,2013-12-19 18:42:00,
2013-12-19 13:52:00,51.0,39.0,-100.00,SE,138,2.0,8.0,63,0.00,,,0.02,,2013-12-19 18:52:00,
2013-12-19 14:11:00,51.0,39.0,-100.00,South,191,2.0,7.0,63,0.00,,,0.02,,2013-12-19 19:11:00,
2013-12-19 14:22:00,52.0,39.0,-100.00,SSE,158,3.0,11.0,61,0.00,,,0.02,,2013-12-19 19:22:00,
2013-12-19 14:42:00,52.0,39.0,-100.00,SE,133,5.0,12.0,60,0.00,,,0.00,,2013-12-19 19:42:00,
2013-12-19 14:52:00,53.0,39.0,-100.00,SE,143,3.0,12.0,60,0.00,,,0.00,,2013-12-19 19:52:00,
2013-12-19 15:11:00,52.0,39.0,-100.00,SSW,201,3.0,8.0,61,0.00,,,0.00,,2013-12-19 20:11:00,
2013-12-19 15:22:00,52.0,39.0,-100.00,South,173,2.0,10.0,62,0.00,,,0.00,,2013-12-19 20:22:00,
2013-12-19 15:42:00,52.0,39.0,-100.00,South,169,3.0,12.0,62,0.00,,,0.00,,2013-12-19 20:42:00,
2013-12-19 15:52:00,52.0,40.0,-100.00,SSW,212,4.0,8.0,63,0.00,,,0.00,,2013-12-19 20:52:00,
2013-12-19 16:11:00,52.0,40.0,-100.00,SW,218,3.0,9.0,63,0.00,,,0.00,,2013-12-19 21:11:00,
2013-12-19 16:22:00,52.0,40.0,-100.00,South,185,2.0,5.0,64,0.00,,,0.00,,2013-12-19 21:22:00,
2013-12-19 16:43:00,51.0,40.0,-100.00,SSE,160,2.0,6.0,65,0.00,,,0.00,,2013-12-19 21:43:00,
2013-12-19 16:53:00,51.0,40.0,-100.00,SW,219,0.0,5.0,66,0.00,,,0.00,,2013-12-19 21:53:00,
2013-12-19 17:13:00,50.0,39.0,-100.00,SSW,197,1.0,6.0,67,0.00,,,0.00,,2013-12-19 22:13:00,
2013-12-19 17:23:00,50.0,39.0,-100.00,SSW,198,0.0,5.0,67,0.00,,,0.00,,2013-12-19 22:23:00,
2013-12-19 17:43:00,49.0,39.0,-100.00,SSW,194,0.0,1.0,68,0.00,,,0.00,,2013-12-19 22:43:00,
2013-12-19 17:53:00,48.0,38.0,-100.00,SSW,194,0.0,0.0,69,0.00,,,0.00,,2013-12-19 22:53:00,
2013-12-19 18:13:00,46.0,37.0,-100.00,SSW,194,0.0,0.0,71,0.00,,,0.00,,2013-12-19 23:13:00,
2013-12-19 18:22:00,45.0,37.0,-100.00,SSW,194,0.0,0.0,73,0.00,,,0.00,,2013-12-19 23:22:00,
2013-12-19 18:42:00,44.0,37.0,-100.00,SSW,194,0.0,0.0,75,0.00,,,0.00,,2013-12-19 23:42:00,
2013-12-19 19:42:00,43.0,38.0,-100.00,SSW,206,1.0,4.0,81,0.00,,,0.00,,2013-12-20 00:42:00,
2013-12-19 19:53:00,46.0,39.0,-100.00,SW,220,0.0,6.0,77,0.00,,,0.00,,2013-12-20 00:53:00,
2013-12-19 20:12:00,48.0,40.0,-100.00,South,186,2.0,5.0,75,0.00,,,0.00,,2013-12-20 01:12:00,
2013-12-19 20:22:00,48.0,40.0,-100.00,SSW,202,2.0,5.0,75,0.00,,,0.00,,2013-12-20 01:22:00,
2013-12-19 20:52:00,49.0,42.0,-100.00,SSW,192,0.0,6.0,77,0.00,,,0.00,,2013-12-20 01:52:00,
2013-12-19 21:11:00,49.0,42.0,-100.00,SE,143,1.0,7.0,77,0.00,,,0.00,,2013-12-20 02:11:00,
2013-12-19 21:22:00,49.0,42.0,-100.00,SSE,166,1.0,5.0,78,0.00,,,0.00,,2013-12-20 02:22:00,
2013-12-19 21:42:00,49.0,43.0,-100.00,South,191,2.0,6.0,80,0.00,,,0.00,,2013-12-20 02:42:00,
2013-12-19 21:52:00,48.0,42.0,-100.00,SSW,210,1.0,6.0,80,0.00,,,0.00,,2013-12-20 02:52:00,
2013-12-19 22:11:00,48.0,42.0,-100.00,West,265,0.0,5.0,79,0.00,,,0.00,,2013-12-20 03:11:00,
2013-12-19 22:22:00,49.0,43.0,-100.00,SSE,162,2.0,8.0,79,0.00,,,0.00,,2013-12-20 03:22:00,
2013-12-19 22:44:00,49.0,42.0,-100.00,SSW,192,0.0,2.0,78,0.00,,,0.00,,2013-12-20 03:44:00,
2013-12-19 22:53:00,49.0,42.0,-100.00,South,177,1.0,5.0,78,0.00,,,0.00,,2013-12-20 03:53:00,
2013-12-19 23:13:00,49.0,42.0,-100.00,South,189,1.0,5.0,78,0.00,,,0.00,,2013-12-20 04:13:00,
2013-12-19 23:23:00,49.0,42.0,-100.00,WSW,247,0.0,5.0,78,0.00,,,0.00,,2013-12-20 04:23:00,
2013-12-19 23:43:00,49.0,42.0,-100.00,South,179,2.0,10.0,76,0.00,,,0.00,,2013-12-20 04:43:00,
2013-12-19 23:53:00,50.0,42.0,-100.00,SE,139,2.0,8.0,75,0.00,,,0.00,,2013-12-20 04:53:00,